This is the latest recevied weather packets stored in our database for station/object WX4ET. If no packets are shown the sender has not sent any weather packets the latest 10 day(s).
| Time | Temp. | Humidity | Pressure | Rain* | Wind** | Luminosity | Snow |
|---|---|---|---|---|---|---|---|
| 1777918052 | 21.11° C | 55% | 1010 hPa | 0 mm | - | 795 W/m² | - |
| 1777917750 | 21.67° C | 52% | 1010.1 hPa | 0 mm | - | 581 W/m² | - |
| 1777917448 | 21.11° C | 55% | 1010.4 hPa | 0 mm | - | 623 W/m² | - |
| 1777917144 | 20.56° C | 54% | 1010.4 hPa | 0 mm | - | 580 W/m² | - |
| 1777916842 | 21.11° C | 53% | 1010.3 hPa | 0 mm | - | 596 W/m² | - |
| 1777916540 | 21.11° C | 56% | 1010.4 hPa | 0 mm | - | 567 W/m² | - |
| 1777916236 | 21.67° C | 51% | 1010.5 hPa | 0 mm | - | 587 W/m² | - |
| 1777915933 | 20° C | 53% | 1010.6 hPa | 0 mm | - | 603 W/m² | - |
| 1777915630 | 19.44° C | 54% | 1010.5 hPa | 0 mm | - | 617 W/m² | - |
| 1777915326 | 20° C | 56% | 1010.6 hPa | 0 mm | - | 592 W/m² | - |
| 1777915023 | 20° C | 55% | 1010.8 hPa | 0 mm | - | 612 W/m² | - |
| 1777914720 | 20° C | 53% | 1011 hPa | 0 mm | - | 656 W/m² | - |
| 1777914416 | 20° C | 58% | 1011.1 hPa | 0 mm | - | 637 W/m² | - |
| 1777914114 | 19.44° C | 57% | 1011.4 hPa | 0 mm | - | 620 W/m² | - |
| 1777913810 | 20° C | 54% | 1011.3 hPa | 0 mm | - | 561 W/m² | - |
| 1777913506 | 19.44° C | 56% | 1011.6 hPa | 0 mm | - | 636 W/m² | - |
| 1777913203 | 18.33° C | 60% | 1011.6 hPa | 0 mm | - | 571 W/m² | - |
| 1777912899 | 18.33° C | 61% | 1011.8 hPa | 0 mm | - | 615 W/m² | - |
| 1777912596 | 18.33° C | 64% | 1011.9 hPa | 0 mm | - | 603 W/m² | - |
| 1777912292 | 17.78° C | 62% | 1011.9 hPa | 0 mm | - | 654 W/m² | - |
| 1777911988 | 18.33° C | 63% | 1012.2 hPa | 0 mm | - | 542 W/m² | - |
| 1777911684 | 17.78° C | 64% | 1012.2 hPa | 0 mm | - | 636 W/m² | - |
| 1777911381 | 16.11° C | 67% | 1012.4 hPa | 0 mm | - | 472 W/m² | - |
| 1777911079 | 16.67° C | 63% | 1012.3 hPa | 0 mm | - | 274 W/m² | - |
| 1777910776 | 16.67° C | 64% | 1012.4 hPa | 0 mm | - | 304 W/m² | - |
* Rain latest hour (hover to see other rain measurements)
** Current wind speed in m/s (hover to see current wind gust speed)